Regional Weather Roundup
Issued by NWS Sioux Falls, SD

Home | Current Version | Previous Version | Text Only | Print | Product List | Glossary On
Versions: 1 2 3 4 5 6 7 8 9 10 11 12 13 14 15 16 17 18 19 20 21 22 23 24 25 26 27 28 29 30 31 32 33 34 35 36 37 38 39 40 41 42 43 44 45 46 47 48 49 50
000
ASUS43 KFSD 230410
RWRFSD

WEATHER ROUNDUP FOR SE SOUTH DAKOTA/SW MINNESOTA/NW IOWA
NATIONAL WEATHER SERVICE SIOUX FALLS SD
1000 PM CST WED FEB 22 2017

NOTE: "FAIR" INDICATES FEW OR NO CLOUDS BELOW 12,000 FEET WITH NO
SIGNIFICANT WEATHER AND OR OBSTRUCTIONS TO VISIBILITY.


SDZ038>040-050-052>070-230500-
SOUTHEAST SOUTH DAKOTA

CITY           SKY/WX    TMP DP  RH WIND       PRES   REMARKS
BROOKINGS      CLOUDY    33  30  88 N15G23    29.84R WCI  23
CHAMBERLAIN    CLOUDY    36  33  90 N14G21    29.91S
HURON          CLOUDY    33  29  85 N20G26    29.92R WCI  21
MADISON        CLOUDY    32  32 100 N14G21    29.86R WCI  22
MITCHELL       CLOUDY    35  31  85 N15       29.91R WCI  25
SIOUX FALLS    MOCLDY    38  35  89 N8        29.85R
WINNER         CLOUDY    38  33  82 N14       29.91R
YANKTON        CLEAR     39  36  87 NW15      29.87R
$$

MNZ071-072-080-081-089-090-097-098-230500-
SOUTHWEST MINNESOTA

CITY           SKY/WX    TMP DP  RH WIND       PRES   REMARKS
FAIRMONT       CLOUDY    38  36  92 NW20      29.78R
JACKSON          N/A     36  34  93 NW24G31   29.79R
LUVERNE        MOCLDY    36  32  87 N13G18    29.83R
MARSHALL       CLOUDY    34  32  92 N18G25    29.84R WCI  23
MONTEVIDEO     CLOUDY    34  34 100 N16G22    29.86R WCI  23
PIPESTONE      CLOUDY    34  28  80 N12       29.84R WCI  25
REDWOOD FALLS  CLOUDY    38  32  79 N12       29.81R
TRACY          CLOUDY    35  33  94 NW18G24   29.84R WCI  24
WINDOM         CLOUDY    36  34  93 NW22G28   29.80R
WORTHINGTON    CLOUDY    35  33  92 N21       29.81R WCI  24
$$

IAZ001>003-012>014-020>022-031-032-NEZ013-014-SDZ071-230500-
NORTHWEST IOWA

CITY           SKY/WX    TMP DP  RH WIND       PRES   REMARKS
CHEROKEE       CLEAR     42  39  90 N8        29.81R
DENISON        CLEAR     45  39  81 N3        29.78R
ESTHERVILLE    CLOUDY    38  37  97 NW20      29.79R
LE MARS        CLEAR     41  37  87 N10       29.83R
ORANGE CITY    CLEAR     39  37  93 N9        29.82R
SHELDON        CLEAR     36  36 100 N9        29.81R
SIOUX CITY     CLEAR     47  38  71 N15       29.81R
SPENCER        MOCLDY    38  37  97 N13       29.80R
STORM LAKE     CLEAR     41  37  87 N10       29.78R
$$

ABBREVIATIONS USED IN REMARKS
   TC - TEMPERATURE IN CELSIUS
  WCI - WIND CHILL INDEX
   HX - HEAT INDEX
  VSB - VISIBILITY




USA.gov is the U.S. government's official web portal to all federal, state and local government web resources and services.